User: anonymous   Login
Location: The Saddle
(36.8333°N, 80.3417°W)
Time: 03:25:38
(UTC-05:00)
Language:

NANOSAT C BR1 - Orbit

View from above orbital plane
View from above orbital plane
View from above satellite
View from above satellite

Ground track
Ground track

The orbit data is extracted from the following two-line orbital elements,

1 40024U 14033Q   24063.88147787  .00018375  00000-0  14528-2 0  9992
2 40024  98.0594  31.9185 0011201 150.4374 209.7485 15.00655347527446
Epoch (UTC): 03 March 2024 21:09:19
Eccentricity: 0.0011201
inclination: 98.0594°
perigee height: 557 km
apogee height: 572 km
right ascension of ascending node: 31.9185°
argument of perigee: 150.4374°
revolutions per day: 15.00655347
mean anomaly at epoch: 209.7485°
orbit number at epoch: 52744

The dashed part of the orbit path shows where the satellite is in the earth's shadow,  

DLR